User: anonymous   Login
Location: Bacea
(45.9500°N, 22.6667°E)
Time: 01:36:39
(UTC+00:00)
Language:

Landsat 5 - Orbit

View from above orbital plane
View from above orbital plane
View from above satellite
View from above satellite

Ground track
Ground track

The orbit data is extracted from the following two-line orbital elements,

1 14780U 84021A   22020.52705823  .00000775  00000-0  75890-4 0  9995
2 14780  98.2053 212.1148 0090325  53.8196 307.1334 14.92538473550589
Epoch (UTC): 20 January 2022 12:38:57
Eccentricity: 0.0090325
inclination: 98.2053°
perigee height: 527 km
apogee height: 653 km
right ascension of ascending node: 212.1148°
argument of perigee: 53.8196°
revolutions per day: 14.92538473
mean anomaly at epoch: 307.1334°
orbit number at epoch: 55058

The dashed part of the orbit path shows where the satellite is in the earth's shadow,  

DLR